Tracking 22287 objects as of 27-Jan-2021
HD Live streaming from Space Station
objects crossing your sky now

GALILEO 22 (2C8)

Track GALILEO 22 (2C8) now!
GALILEO 22 (2C8) is classified as:


NORAD ID: 43058
Int'l Code: 2017-079D
Perigee: 23,217.5 km
Apogee: 23,241.1 km
Inclination: 56.1 °
Period: 844.7 minutes
Semi major axis: 29600 km
RCS: Unknown
Launch date: December 12, 2017
Source: European Space Agency (ESA)
Launch site: FRENCH GUIANA (FRGUI)
aabbcc
Your satellite tracking list
Your tracking list is empty




NASA's NSSDC Master Catalog

Two Line Element Set (TLE):
1 43058U 17079D   21026.76067794  .00000034  00000-0  00000-0 0  9998
2 43058  56.0942 275.6637 0003989 297.4669  62.5809  1.70474155 19471
Source of the keplerian elements: AFSPC